Voltar ao catálogo

COSMOS 2251 DEB

AtivoLEO
NORAD 47051·DEBRIS·🇷🇺 Russia

Lançado Jun 16, 1993 de Plesetsk Cosmodrome

Loading…

Próximas Passagens (próximas 24 horas)

TLE

AtualizadoSource: Space-Track

Época: Sep 14, 2026, 05:51 UTC

1 47051U 93036BXF 26257.24411172  .00000994  00000-0  79613-3 0  9993
2 47051  74.0973  92.9523 0341784 141.9918 340.6720 13.67896745637047

Acompanhe COSMOS 2251 DEB em tempo real com AllMySat

Download on the App Store